Simultaneous Nadir Overpasses (SNOs) Predictions

Prediction of SNOs between NPP and METOP-C Satellite Orbit:

Table of predicted SNOs for the next 14.0 days since TLE Epoch: 4/10/2021
Index Date (NPP) Time (NPP) Lat,Lon (NPP) SZA (NPP ) Date (METOP-C) Time (METOP-C) Lat,Lon (METOP-C) SZA (METOP-C ) Distance(km) Time Diff (sec)
1 04/13/2021 21:08:13 73.37,-146.65 64.16 04/13/2021 21:09:19 73.31,-143.88 63.97 88.83 66
2 04/13/2021 21:58:54 -73.22, 20.98 116.01 04/13/2021 22:00:02 -73.20, 23.23 116.14 72.39 68
3 04/13/2021 22:49:37 73.07,-171.38 63.81 04/13/2021 22:50:47 72.98,-169.92 63.65 48.32 70
4 04/13/2021 23:40:18 -72.93, -3.76 116.36 04/13/2021 23:41:30 -72.88, -2.80 116.46 31.71 72
5 04/14/2021 00:31:01 72.77, 163.88 63.46 04/14/2021 00:32:14 72.71, 164.17 63.37 11.97 73
6 04/14/2021 01:21:43 -72.68, -28.62 116.65 04/14/2021 01:22:56 -72.66, -28.61 116.69 2.93 73
7 04/14/2021 02:12:29 72.68, 138.70 63.34 04/14/2021 02:13:36 72.69, 138.78 63.33 2.86 67
8 04/14/2021 03:03:12 -72.64, -53.90 116.72 04/14/2021 03:04:18 -72.64, -53.99 116.74 2.85 66
9 04/14/2021 03:53:58 72.64, 113.42 63.26 04/14/2021 03:54:58 72.67, 113.40 63.28 3.50 60
10 04/14/2021 04:44:42 -72.65, -79.29 116.74 04/14/2021 04:45:39 -72.67, -79.27 116.73 2.39 57
11 04/14/2021 05:35:27 72.64, 88.03 63.24 04/14/2021 05:36:19 72.64, 88.02 63.24 0.53 52
12 04/14/2021 06:26:11 -72.65,-104.68 116.76 04/14/2021 06:27:00 -72.65,-104.65 116.78 1.25 49
13 04/14/2021 07:16:57 72.65, 62.64 63.23 04/14/2021 07:17:41 72.62, 62.63 63.19 2.74 44
14 04/14/2021 08:07:40 -72.61,-129.96 116.83 04/14/2021 08:08:22 -72.63,-130.03 116.82 2.91 42
15 04/14/2021 08:58:27 72.66, 37.25 63.21 04/14/2021 08:59:02 72.65, 37.36 63.19 3.41 35
16 04/14/2021 09:49:10 -72.62,-155.35 116.85 04/14/2021 09:49:44 -72.60,-155.41 116.87 2.49 34
17 04/14/2021 10:39:56 72.61, 11.97 63.13 04/14/2021 10:40:24 72.63, 11.97 63.15 2.41 28
18 04/14/2021 11:30:40 -72.62, 179.26 116.87 04/14/2021 11:31:05 -72.63, 179.31 116.87 1.96 25
19 04/14/2021 12:21:26 72.62, -13.42 63.12 04/14/2021 12:21:46 72.61, -13.41 63.11 0.75 20
20 04/14/2021 13:12:10 -72.63, 153.87 116.89 04/14/2021 13:12:27 -72.61, 153.92 116.91 2.43 17
21 04/14/2021 14:02:55 72.57, -38.70 63.04 04/14/2021 14:03:08 72.59, -38.79 63.06 3.51 13
22 04/14/2021 14:53:39 -72.59, 128.59 116.96 04/14/2021 14:53:49 -72.59, 128.54 116.95 1.78 10
23 04/14/2021 15:44:25 72.58, -64.09 63.02 04/14/2021 15:44:30 72.57, -64.17 63.02 3.04 5
24 04/14/2021 16:35:09 -72.59, 103.20 116.98 04/14/2021 16:35:11 -72.57, 103.16 117.00 2.67 2
25 04/14/2021 17:25:55 72.59, -89.48 63.01 04/14/2021 17:25:51 72.60, -89.45 63.02 1.60 4
26 04/14/2021 18:16:39 -72.60, 77.81 117.00 04/14/2021 18:16:32 -72.60, 77.88 117.00 2.22 7
27 04/14/2021 19:07:25 72.59,-114.87 62.99 04/14/2021 19:07:13 72.58,-114.84 62.97 2.02 12
28 04/14/2021 19:58:08 -72.55, 52.53 117.07 04/14/2021 19:57:54 -72.58, 52.50 117.04 3.07 14
29 04/14/2021 20:48:54 72.55,-140.15 62.92 04/14/2021 20:48:35 72.56,-140.22 62.93 2.39 19
30 04/14/2021 21:39:38 -72.56, 27.14 117.09 04/14/2021 21:39:16 -72.56, 27.12 117.09 0.89 22
31 04/14/2021 22:30:24 72.56,-165.54 62.90 04/14/2021 22:29:57 72.54,-165.60 62.89 3.07 27
32 04/14/2021 23:21:08 -72.57, 1.75 117.11 04/14/2021 23:20:38 -72.54, 1.73 117.13 3.32 30
33 04/15/2021 00:11:54 72.56, 169.07 62.88 04/15/2021 00:11:18 72.57, 169.12 62.89 1.59 36
34 04/15/2021 01:02:38 -72.57, -23.63 117.13 04/15/2021 01:01:59 -72.57, -23.55 117.13 3.00 39
35 04/15/2021 01:53:24 72.57, 143.68 62.86 04/15/2021 01:52:40 72.54, 143.74 62.84 3.30 44
36 04/15/2021 02:44:07 -72.53, -48.92 117.20 04/15/2021 02:43:21 -72.55, -48.93 117.17 1.93 46
37 04/15/2021 03:34:53 72.53, 118.40 62.79 04/15/2021 03:34:02 72.52, 118.35 62.80 1.52 51
38 04/15/2021 04:25:37 -72.54, -74.31 117.22 04/15/2021 04:24:43 -72.53, -74.31 117.22 1.17 54
39 04/15/2021 05:16:23 72.53, 93.01 62.77 04/15/2021 05:15:23 72.55, 93.07 62.80 3.15 60
40 04/15/2021 06:07:06 -72.49, -99.59 117.29 04/15/2021 06:06:05 -72.51, -99.69 117.26 3.64 61
41 04/15/2021 06:57:53 72.54, 67.62 62.75 04/15/2021 06:56:45 72.53, 67.69 62.76 2.42 68
42 04/15/2021 07:48:36 -72.50,-124.98 117.31 04/15/2021 07:47:27 -72.48,-125.07 117.30 3.58 69
43 04/15/2021 08:39:22 72.50, 42.34 62.68 04/15/2021 08:38:07 72.51, 42.31 62.71 2.04 75
44 04/15/2021 09:30:04 -72.41,-150.16 117.44 04/15/2021 09:28:50 -72.41,-150.56 117.39 13.25 74
45 04/15/2021 10:20:46 72.20, 17.56 62.33 04/15/2021 10:19:35 72.18, 16.32 62.39 41.93 71
46 04/15/2021 11:11:28 -72.11,-174.95 117.78 04/15/2021 11:10:17 -72.14,-176.44 117.67 50.72 71
47 04/15/2021 12:02:10 71.89, -7.24 61.98 04/15/2021 12:01:02 71.90, -9.54 62.12 79.47 68
48 04/15/2021 12:52:52 -71.81, 160.24 118.13 04/15/2021 12:51:45 -71.81, 157.61 117.99 91.42 67



Historial Predications of SNOs between NPP and METOP-C
